Shelby, NC

4:01 PM EDT on August 20, 2017 (GMT -0400)
Shelby Municipal

Weather History for KEHO - February, 2013

Change the Weather History Date:

Tuesday, February 12, 2013

  Actual Average (KHKY) Record (KHKY)
Temperature  
Mean Temperature 48 °F -  
Max Temperature 56 °F 50 °F 82 °F (2017)
Min Temperature 41 °F 28 °F 7 °F (1981)
Degree Days  
Heating Degree Days 16    
Moisture  
Dew Point 34 °F    
Average Humidity 58    
Maximum Humidity 93    
Minimum Humidity 28    
Precipitation  
Precipitation 0.05 in - - ()
Sea Level Pressure  
Sea Level Pressure 30.02 in    
Wind  
Wind Speed 3 mph (WNW)    
Max Wind Speed 7 mph    
Max Gust Speed -    
Visibility 10 miles    
Events Rain    
Averages and records for this station are not official NWS values.
T = Trace of Precipitation, MM = Missing Value Source: NWS Daily Summary

Daily Weather History Graph

Daily Weather History Graph

Search for Another Location

Airport or City:

Trip Planner

Search our weather history database for the weather conditions in past years. The results will help you decide how hot, cold, wet, or windy it might be!

Date:

Astronomy

Feb. 12, 2013 Rise Set
Actual Time 7:15 AM EST 6:06 PM EST
Civil Twilight 6:49 AM EST 6:32 PM EST
Nautical Twilight 6:19 AM EST 7:02 PM EST
Astronomical Twilight 5:50 AM EST 7:31 PM EST
Moon 8:19 AM EST (2/12) 8:56 PM EST (2/12)
Length of Visible Light 11h 42m
Length of Day
10h 50m
Waxing Crescent, 7% of the Moon is Illuminated
Feb 12
Waxing Crescent
Feb 17
First Quarter
Feb 25
Full
Mar 4
Last Quarter
Mar 11
New

Hourly Weather History & Observations

Time (EST) Temp. Windchill Dew Point Humidity Pressure Visibility Wind Dir Wind Speed Gust Speed Precip Events Conditions
12:15 AM 51.3 °F - 49.3 °F 93% 30.01 in 10.0 mi SW 5.8 mph - N/A   Clear
12:35 AM 50.2 °F - 47.8 °F 92% 30.02 in 10.0 mi Calm Calm - N/A   Clear
12:55 AM 50.0 °F - 48.0 °F 93% 30.03 in 10.0 mi Calm Calm - N/A   Clear
1:15 AM 50.5 °F - 47.8 °F 90% 30.03 in 10.0 mi SW 3.5 mph - N/A   Clear
1:35 AM 50.5 °F - 46.2 °F 85% 30.02 in 10.0 mi WSW 4.6 mph - N/A   Clear
1:55 AM 48.4 °F - 45.1 °F 89% 30.01 in 10.0 mi Calm Calm - N/A   Clear
2:15 AM 47.7 °F - 45.9 °F 93% 30.02 in 10.0 mi NW 3.5 mph - N/A   Clear
2:35 AM 47.5 °F - 45.0 °F 91% 30.02 in 10.0 mi NNW 5.8 mph - N/A   Clear
2:55 AM 47.7 °F - 45.7 °F 93% 30.03 in 10.0 mi West 3.5 mph - N/A   Clear
3:15 AM 48.6 °F - 45.5 °F 89% 30.03 in 10.0 mi Calm Calm - N/A   Clear
3:35 AM 48.2 °F - 45.1 °F 89% 30.01 in 10.0 mi Calm Calm - N/A   Clear
3:55 AM 47.7 °F - 44.8 °F 90% 30.01 in 10.0 mi West 4.6 mph - N/A   Clear
4:15 AM 48.0 °F - 41.4 °F 78% 30.00 in 10.0 mi WNW 4.6 mph - N/A   Clear
4:35 AM 45.3 °F 42.3 °F 42.4 °F 90% 30.01 in 10.0 mi NW 5.8 mph - N/A   Clear
4:55 AM 45.5 °F 41.8 °F 37.6 °F 74% 30.03 in 10.0 mi WNW 6.9 mph - N/A   Clear
5:15 AM 45.1 °F 42.8 °F 35.8 °F 70% 30.03 in 10.0 mi NW 4.6 mph - N/A   Clear
5:35 AM 46.0 °F 43.1 °F 32.4 °F 59% 30.03 in 10.0 mi NNW 5.8 mph - N/A   Clear
5:55 AM 46.4 °F 42.9 °F 29.3 °F 51% 30.03 in 10.0 mi NNW 6.9 mph - N/A   Clear
6:15 AM 45.3 °F 44.0 °F 29.3 °F 54% 30.04 in 10.0 mi WNW 3.5 mph - N/A   Clear
6:35 AM 45.1 °F 42.8 °F 27.9 °F 51% 30.05 in 10.0 mi NNW 4.6 mph - N/A   Clear
6:55 AM 45.0 °F 42.6 °F 26.4 °F 48% 30.05 in 10.0 mi NNW 4.6 mph - N/A   Clear
7:15 AM 44.6 °F 43.1 °F 25.7 °F 48% 30.05 in 10.0 mi NNW 3.5 mph - N/A   Clear
7:35 AM 43.7 °F - 26.8 °F 51% 30.05 in 10.0 mi Calm Calm - N/A   Clear
7:55 AM 43.7 °F 42.1 °F 27.3 °F 53% 30.07 in 10.0 mi West 3.5 mph - N/A   Clear
8:15 AM 41.9 °F 40.0 °F 31.5 °F 66% 30.10 in 10.0 mi SW 3.5 mph - N/A   Clear
8:35 AM 42.4 °F - 32.0 °F 67% 30.09 in 10.0 mi Calm Calm - N/A   Clear
8:55 AM 46.0 °F 44.8 °F 31.5 °F 57% 30.10 in 10.0 mi West 3.5 mph - N/A   Clear
9:15 AM 46.0 °F - 31.5 °F 57% 30.09 in 10.0 mi Calm Calm - N/A   Clear
9:35 AM 47.5 °F - 32.5 °F 56% 30.10 in 10.0 mi Calm Calm - N/A   Clear
9:55 AM 47.8 °F - 32.5 °F 55% 30.10 in 10.0 mi WNW 4.6 mph - N/A   Clear
10:15 AM 49.6 °F - 30.2 °F 47% 30.11 in 10.0 mi NW 5.8 mph - N/A   Clear
10:35 AM 51.3 °F - 31.5 °F 47% 30.10 in 10.0 mi NW 5.8 mph - N/A   Clear
10:55 AM 52.7 °F - 28.4 °F 39% 30.09 in 10.0 mi NW 4.6 mph - N/A   Clear
11:15 AM 53.6 °F - 25.0 °F 33% 30.07 in 10.0 mi North 4.6 mph - N/A   Clear
11:35 AM 54.0 °F - 24.3 °F 32% 30.07 in 10.0 mi Calm Calm - N/A   Clear
11:55 AM 54.9 °F - 25.3 °F 32% 30.07 in 10.0 mi Calm Calm - N/A   Clear
12:15 PM 55.4 °F - 24.8 °F 31% 30.06 in 10.0 mi Calm Calm - N/A   Clear
12:35 PM 56.7 °F - 26.2 °F 31% 30.05 in 10.0 mi East 4.6 mph - N/A   Clear
12:55 PM 55.9 °F - 24.4 °F 30% 30.04 in 10.0 mi SSW 3.5 mph - N/A   Clear
1:15 PM 56.3 °F - 23.4 °F 28% 30.03 in 10.0 mi Calm Calm - N/A   Clear
1:35 PM 56.3 °F - 25.0 °F 30% 30.03 in 10.0 mi SW 4.6 mph - N/A   Clear
1:55 PM 56.5 °F - 25.5 °F 30% 30.03 in 10.0 mi SSW 5.8 mph - N/A   Clear
2:15 PM 56.5 °F - 26.1 °F 31% 30.02 in 10.0 mi South 3.5 mph - N/A   Clear
2:35 PM 56.3 °F - 27.0 °F 32% 30.02 in 10.0 mi SW 4.6 mph - N/A   Clear
2:55 PM 56.5 °F - 25.2 °F 30% 30.01 in 10.0 mi SSW 4.6 mph - N/A   Clear
3:15 PM 56.3 °F - 26.1 °F 31% 30.00 in 10.0 mi West 4.6 mph - N/A   Clear
3:35 PM 55.9 °F - 25.2 °F 31% 30.00 in 10.0 mi Calm Calm - N/A   Clear
3:55 PM 55.9 °F - 27.1 °F 33% 30.01 in 10.0 mi West 3.5 mph - N/A   Clear
4:15 PM 55.8 °F - 27.5 °F 34% 30.01 in 10.0 mi Calm Calm - N/A   Clear
4:35 PM 55.8 °F - 27.7 °F 34% 30.02 in 10.0 mi West 3.5 mph - N/A   Clear
4:55 PM 54.7 °F - 31.6 °F 42% 30.00 in 10.0 mi Calm Calm - N/A   Mostly Cloudy
5:15 PM 54.7 °F - 32.0 °F 42% 29.98 in 10.0 mi Calm Calm - N/A   Overcast
5:35 PM 54.7 °F - 28.0 °F 36% 29.97 in 10.0 mi Calm Calm - N/A   Scattered Clouds
5:55 PM 54.7 °F - 26.4 °F 34% 29.99 in 10.0 mi Calm Calm - N/A   Scattered Clouds
6:15 PM 54.0 °F - 28.8 °F 38% 29.95 in 10.0 mi Calm Calm - N/A   Mostly Cloudy
6:35 PM 51.3 °F - 32.9 °F 50% 29.94 in 10.0 mi East 3.5 mph - N/A   Overcast
6:55 PM 51.4 °F - 33.8 °F 51% 29.89 in 10.0 mi East 5.8 mph - N/A   Overcast
7:15 PM 52.9 °F - 31.3 °F 44% 29.94 in 10.0 mi Calm Calm - N/A   Overcast
7:35 PM 50.4 °F - 37.4 °F 61% 29.99 in 10.0 mi WSW 4.6 mph - N/A Rain Light Rain
7:55 PM 50.2 °F - 36.7 °F 60% 29.99 in 10.0 mi Calm Calm - N/A   Overcast
8:15 PM 51.3 °F - 36.3 °F 57% 29.97 in 10.0 mi West 3.5 mph - N/A Rain Light Rain
8:35 PM 50.0 °F - 35.8 °F 58% 30.00 in 10.0 mi West 4.6 mph - N/A Rain Light Rain
9:15 PM 48.4 °F - 41.0 °F 76% 29.97 in 10.0 mi Calm Calm - N/A   Overcast
9:35 PM 47.3 °F - 41.2 °F 79% 29.99 in 10.0 mi NNE 4.6 mph - N/A   Overcast
9:55 PM 48.0 °F - 37.8 °F 68% 30.00 in 10.0 mi Calm Calm - N/A   Overcast
10:15 PM 46.6 °F - 39.7 °F 77% 29.97 in 10.0 mi NNE 3.5 mph - 0.02 in Rain Light Rain
10:35 PM 45.9 °F - 41.4 °F 84% 29.99 in 10.0 mi Calm Calm - 0.02 in Rain Light Rain
10:55 PM 46.0 °F - 41.2 °F 83% 29.97 in 10.0 mi Calm Calm - 0.03 in Rain Light Rain
11:15 PM 45.7 °F - 42.1 °F 87% 29.96 in 10.0 mi Calm Calm - N/A Rain Light Rain
11:35 PM 45.1 °F - 42.8 °F 91% 29.96 in 10.0 mi Calm Calm - 0.02 in Rain Light Rain
11:55 PM 45.1 °F - 42.8 °F 91% 29.95 in 10.0 mi Calm Calm - 0.02 in   Overcast